TimeMDT,TemperatureF,Dew PointF,Humidity,Sea Level PressureIn,VisibilityMPH,Wind Direction,Wind SpeedMPH,Gust SpeedMPH,PrecipitationIn,Events,Conditions,WindDirDegrees,DateUTC
12:53 AM,70.0,62.1,76,30.01,10.0,West,4.6,-,N/A,,Clear,260,2013-08-30 06:53:00
1:53 AM,69.1,62.1,78,30.00,10.0,Calm,Calm,-,N/A,,Clear,0,2013-08-30 07:53:00
2:53 AM,66.9,61.0,81,30.00,10.0,West,3.5,-,N/A,,Clear,280,2013-08-30 08:53:00
3:53 AM,66.0,60.1,81,29.99,10.0,Calm,Calm,-,N/A,,Clear,0,2013-08-30 09:53:00
4:53 AM,64.9,60.1,84,29.99,10.0,West,4.6,-,N/A,,Clear,270,2013-08-30 10:53:00
5:53 AM,66.9,59.0,76,29.98,10.0,WNW,9.2,-,N/A,,Clear,290,2013-08-30 11:53:00
6:53 AM,66.9,59.0,76,30.00,10.0,WNW,5.8,-,N/A,,Clear,300,2013-08-30 12:53:00
7:53 AM,69.1,59.0,70,30.02,10.0,NW,5.8,-,N/A,,Clear,310,2013-08-30 13:53:00
8:53 AM,72.0,61.0,68,30.02,10.0,North,5.8,-,N/A,,Clear,360,2013-08-30 14:53:00
9:53 AM,75.0,61.0,62,30.01,10.0,NNE,3.5,-,N/A,,Clear,30,2013-08-30 15:53:00
10:53 AM,79.0,59.0,50,30.00,7.0,Calm,Calm,-,N/A,,Clear,0,2013-08-30 16:53:00
11:53 AM,84.0,57.9,41,29.98,10.0,Calm,Calm,-,N/A,,Clear,0,2013-08-30 17:53:00
12:53 PM,84.0,57.0,40,29.96,10.0,Variable,3.5,-,N/A,,Clear,0,2013-08-30 18:53:00
1:53 PM,87.1,55.0,33,29.93,10.0,SSW,9.2,-,N/A,,Clear,200,2013-08-30 19:53:00
2:53 PM,88.0,54.0,31,29.89,10.0,Calm,Calm,-,N/A,,Clear,0,2013-08-30 20:53:00
3:53 PM,89.1,52.0,28,29.87,10.0,SSW,10.4,-,N/A,,Clear,200,2013-08-30 21:53:00
4:53 PM,90.0,48.9,24,29.85,10.0,South,10.4,16.1,N/A,,Clear,190,2013-08-30 22:53:00
5:53 PM,90.0,52.0,27,29.83,10.0,SSW,9.2,-,N/A,,Clear,200,2013-08-30 23:53:00
6:53 PM,88.0,54.0,31,29.84,10.0,South,10.4,-,N/A,,Clear,180,2013-08-31 00:53:00
7:53 PM,84.9,55.0,36,29.85,10.0,South,8.1,-,N/A,,Clear,180,2013-08-31 01:53:00
8:53 PM,82.9,55.0,38,29.86,10.0,South,6.9,-,N/A,,Clear,170,2013-08-31 02:53:00
9:53 PM,79.0,57.9,48,29.87,10.0,West,6.9,-,N/A,,Clear,260,2013-08-31 03:53:00
10:53 PM,77.0,57.9,52,29.87,10.0,West,8.1,-,N/A,,Clear,270,2013-08-31 04:53:00
11:53 PM,75.0,57.0,53,29.86,10.0,West,6.9,-,N/A,,Clear,270,2013-08-31 05:53:00